Location: Newark
(34.0131°N, 4.3314°W)
Time: 05:18:20
(UTC+00:00)

A-11 Canister half - Pass Details

Date: 26 October 2019
Orbit: 1514 x 1685 km, 47.2° (Epoch: 20 November)

Event Time Altitude Azimuth Distance (km) Brightness Sun altitude
Rises 22:57:18 0° 215° (SW) 4,926 - -64.1°
Reaches altitude 10° 23:00:32 10° 212° (SSW) 3,939 - -64.5°
Maximum altitude 23:10:25 60° 135° (SE) 1,871 - -65.7°
Drops below altitude 10° 23:20:07 10° 59° (ENE) 3,875 - -66.6°
Sets 23:23:15 0° 56° (ENE) 4,843 - -66.9°
